Tracking 19795 objects as of 19-Jul-2019
HD Live streaming from Space Station
objects crossing your sky now

FENGYUN 1C DEB

Track FENGYUN 1C DEB now!
10-day predictions


NORAD ID: 31954
Int'l Code: 1999-025CNF
Perigee: 840.8 km
Apogee: 975.7 km
Inclination: 98.1 °
Period: 103.0 minutes
Semi major axis: 7279 km
RCS: 0.0089 m2 (small)
Launch date: May 10, 1999
Source: People's Republic of China (PRC)
Launch site: Taiyaun Space Center, China (TSC)

Note: This is SATELLITE DEBRIS
aabbcc
Your satellite tracking list
Your tracking list is empty




NASA's NSSDC Master Catalog

Two Line Element Set (TLE):
1 31954U 99025CNF 19200.43474654  .00000377  00000-0  28193-3 0  9999
2 31954  98.1336  69.9189 0092664 310.5280  48.7842 13.97898494624245
Source of the keplerian elements: AFSPC